FW2316 Weather Reports


Display with metric or nautical units.
time (UTC)temp
F
wind
direction
speed
MPH
gust
MPH
rain 1hr
in
rain 24hr
in
rain mn
in
humidity
%
barometer
mb
20260508113012 48 145 0.0 0.0 0.00 0.00 0.00 89 1018.4
20260508112508 48 145 0.0 0.0 0.00 0.00 0.00 89 1018.4
20260508112008 48 145 0.0 0.0 0.00 0.00 0.00 89 1018.4
20260508111507 48 145 0.0 0.0 0.00 0.00 0.00 88 1018.3
20260508111008 49 145 0.0 0.0 0.00 0.00 0.00 88 1018.2
20260508110506 49 145 0.0 0.0 0.00 0.00 0.00 88 1018.2
20260508110005 49 145 0.0 0.0 0.00 0.00 0.00 88 1018.1
20260508105504 49 145 0.0 0.0 0.00 0.00 0.00 88 1018.1
20260508105003 49 145 0.0 0.0 0.00 0.00 0.00 88 1018.0
20260508104504 49 145 0.0 0.0 0.00 0.00 0.00 87 1018.0
20260508104005 49 145 0.0 0.0 0.00 0.00 0.00 88 1017.9
20260508103604 49 145 0.0 0.0 0.00 0.00 0.00 88 1017.9
20260508103007 49 145 0.0 3.0 0.00 0.00 0.00 88 1017.9
20260508102503 49 145 0.0 3.0 0.00 0.00 0.00 88 1017.9
20260508102002 49 145 0.0 3.0 0.00 0.00 0.00 88 1017.9
20260508101502 49 145 1.0 3.0 0.00 0.00 0.00 88 1017.9
20260508101100 49 145 0.0 2.0 0.00 0.00 0.00 87 1017.9
20260508100601 49 145 0.0 4.0 0.00 0.00 0.00 87 1017.9
20260508095557 50 144 0.0 4.0 0.00 0.00 0.00 86 1017.8
20260508095057 50 144 1.0 4.0 0.00 0.00 0.00 85 1017.8
20260508094603 51 144 1.0 4.0 0.00 0.00 0.00 85 1017.8
20260508094055 51 144 1.0 9.0 0.00 0.00 0.00 85 1017.9
20260508093656 51 144 3.0 9.0 0.00 0.00 0.00 84 1017.8
20260508093058 51 164 3.0 8.0 0.00 0.00 0.00 85 1017.9
20260508092555 51 166 2.0 8.0 0.00 0.00 0.00 85 1017.9
20260508092054 51 171 3.0 6.0 0.00 0.00 0.00 85 1017.9
20260508091604 51 173 2.0 7.0 0.00 0.00 0.00 86 1017.8
20260508091054 50 175 4.0 7.0 0.00 0.00 0.00 86 1017.8
20260508090554 50 172 3.0 7.0 0.00 0.00 0.00 86 1017.8
20260508090107 50 168 5.0 7.0 0.00 0.00 0.00 85 1017.8
20260508085553 51 163 3.0 8.0 0.00 0.00 0.00 84 1017.7
20260508085053 51 157 3.0 8.0 0.00 0.00 0.00 84 1017.7
20260508084553 51 136 0.0 5.0 0.00 0.00 0.00 84 1017.6
20260508084053 51 122 1.0 7.0 0.00 0.00 0.00 84 1017.6
20260508083653 51 120 2.0 7.0 0.00 0.00 0.00 84 1017.6
20260508083052 52 92 0.0 4.0 0.00 0.00 0.00 83 1017.5
20260508082552 52 90 0.0 4.0 0.00 0.00 0.00 83 1017.5
20260508082053 52 87 0.0 3.0 0.00 0.00 0.00 83 1017.4
20260508081606 52 85 0.0 3.0 0.00 0.00 0.00 83 1017.5
20260508081052 52 85 0.0 4.0 0.00 0.00 0.00 83 1017.5
20260508080551 52 85 1.0 4.0 0.00 0.00 0.00 83 1017.5
20260508080053 52 82 1.0 4.0 0.00 0.00 0.00 83 1017.6
20260508075552 52 81 1.0 6.0 0.00 0.00 0.00 83 1017.4
20260508075050 52 80 1.0 4.0 0.00 0.00 0.00 83 1017.5
20260508074550 52 80 1.0 4.0 0.00 0.00 0.00 83 1017.6
20260508074051 52 75 1.0 5.0 0.00 0.00 0.00 83 1017.6
20260508073650 52 75 0.0 5.0 0.00 0.00 0.00 83 1017.7
20260508073054 52 73 0.0 3.0 0.00 0.00 0.00 83 1017.7
20260508072546 52 71 0.0 5.0 0.00 0.00 0.00 83 1017.8
20260508072046 52 67 0.0 5.0 0.00 0.00 0.00 83 1017.7
20260508071559 52 50 0.0 4.0 0.00 0.00 0.00 83 1017.6
20260508071046 52 40 0.0 3.0 0.00 0.00 0.00 83 1017.7
20260508070546 52 40 0.0 3.0 0.00 0.00 0.00 83 1017.7
20260508070057 52 39 1.0 3.0 0.00 0.00 0.00 83 1017.8
20260508065548 52 38 1.0 3.0 0.00 0.00 0.00 83 1017.8
20260508065044 52 35 0.0 2.0 0.00 0.00 0.00 83 1017.8
20260508064545 52 34 0.0 4.0 0.00 0.00 0.00 83 1017.8
20260508064047 52 25 1.0 3.0 0.00 0.00 0.00 83 1017.9
20260508063647 52 21 0.0 3.0 0.00 0.00 0.00 83 1017.8
20260508063045 53 19 1.0 4.0 0.00 0.00 0.00 83 1017.9
20260508062545 53 14 1.0 4.0 0.00 0.00 0.00 83 1017.8
20260508062045 53 355 1.0 4.0 0.00 0.00 0.00 83 1017.9
20260508061547 53 338 1.0 3.0 0.00 0.00 0.00 83 1017.9
20260508061045 53 329 0.0 4.0 0.00 0.00 0.00 83 1017.9
20260508060544 53 308 1.0 4.0 0.00 0.00 0.00 83 1018.0
20260508060045 53 296 1.0 4.0 0.00 0.00 0.00 83 1018.1
20260508055544 53 294 1.0 4.0 0.00 0.00 0.00 83 1018.1
20260508055045 53 297 0.0 3.0 0.00 0.00 0.00 84 1018.1
20260508054549 53 297 0.0 3.0 0.00 0.00 0.00 84 1018.1
20260508054044 52 297 0.0 2.0 0.00 0.00 0.00 85 1018.1
20260508053051 52 297 0.0 2.0 0.00 0.00 0.00 85 1018.2
20260508052545 52 297 0.0 0.0 0.00 0.00 0.00 84 1018.2
20260508052044 52 297 0.0 0.0 0.00 0.00 0.00 84 1018.2
20260508051545 52 297 0.0 0.0 0.00 0.00 0.00 84 1018.1
20260508051045 52 297 0.0 1.0 0.00 0.00 0.00 84 1018.1
20260508050545 52 297 0.0 1.0 0.00 0.00 0.00 84 1018.0
20260508050044 53 298 0.0 2.0 0.00 0.00 0.00 83 1018.2
20260508045544 53 297 0.0 2.0 0.00 0.00 0.00 83 1018.1
20260508045044 53 297 0.0 2.0 0.00 0.00 0.00 83 1018.1
20260508044551 53 297 0.0 1.0 0.00 0.00 0.00 82 1018.1
20260508044046 53 297 0.0 1.0 0.00 0.00 0.00 82 1018.1
20260508043644 54 297 0.0 0.0 0.00 0.00 0.00 81 1018.1
20260508043045 54 297 0.0 0.0 0.00 0.00 0.00 80 1018.1
20260508042543 55 297 0.0 0.0 0.00 0.00 0.00 79 1018.2
20260508042041 55 297 0.0 0.0 0.00 0.00 0.00 78 1018.2
20260508041541 55 297 0.0 0.0 0.00 0.00 0.00 77 1018.1
20260508041041 55 298 0.0 0.0 0.00 0.00 0.00 77 1018.2
20260508040541 56 297 0.0 0.0 0.00 0.00 0.00 75 1018.1
20260508040043 56 297 0.0 0.0 0.00 0.00 0.00 74 1018.0
20260508035541 56 297 0.0 0.0 0.00 0.00 0.00 74 1017.9
20260508035041 57 297 0.0 1.0 0.00 0.00 0.00 73 1018.0
20260508034543 58 297 0.0 2.0 0.00 0.00 0.00 71 1018.0
20260508034040 58 297 0.0 2.0 0.00 0.00 0.00 71 1018.0
20260508033640 58 297 1.0 3.0 0.00 0.00 0.00 70 1017.9
20260508033100 58 297 1.0 3.0 0.00 0.00 0.00 70 1018.0
20260508032540 59 297 1.0 4.0 0.00 0.00 0.00 69 1018.0
20260508032039 59 297 2.0 4.0 0.00 0.00 0.00 69 1017.9
20260508031540 59 297 1.0 4.0 0.00 0.00 0.00 68 1017.8
20260508031042 59 297 2.0 4.0 0.00 0.00 0.00 68 1017.8
20260508030539 60 297 2.0 4.0 0.00 0.00 0.00 68 1017.8
20260508030039 60 297 2.0 5.0 0.00 0.00 0.00 67 1017.9
20260508025539 60 297 2.0 5.0 0.00 0.00 0.00 67 1017.8
20260508025042 60 298 3.0 5.0 0.00 0.00 0.00 67 1017.9
20260508024539 61 298 2.0 4.0 0.00 0.00 0.00 67 1017.9
20260508024039 61 298 2.0 5.0 0.00 0.00 0.00 66 1017.8
20260508023637 61 298 2.0 6.0 0.00 0.00 0.00 65 1017.9
20260508023041 61 298 2.0 6.0 0.00 0.00 0.00 65 1018.0
20260508022540 62 300 2.0 6.0 0.00 0.00 0.00 64 1018.2
20260508022041 62 304 3.0 6.0 0.00 0.00 0.00 63 1018.1
20260508021540 62 315 3.0 9.0 0.00 0.00 0.00 63 1018.1
20260508021039 63 322 3.0 9.0 0.00 0.00 0.00 61 1018.2
20260508020538 63 307 1.0 4.0 0.00 0.00 0.00 62 1018.2
20260508020055 62 307 1.0 3.0 0.00 0.00 0.00 62 1018.2
20260508015538 63 308 1.0 5.0 0.00 0.00 0.00 61 1018.2
20260508015037 63 307 3.0 5.0 0.00 0.00 0.00 60 1018.2
20260508014537 63 307 2.0 5.0 0.00 0.00 0.00 60 1018.3
20260508014037 63 308 2.0 4.0 0.00 0.00 0.00 61 1018.3
20260508013636 62 217 0.0 0.0 0.00 0.00 0.00 61 1018.3
20260508013033 62 217 0.0 0.0 0.00 0.00 0.00 60 1018.3
20260508012533 62 217 0.0 3.0 0.00 0.00 0.00 60 1018.2
20260508012032 62 211 0.0 3.0 0.00 0.00 0.00 60 1018.3
20260508011536 62 214 0.0 4.0 0.00 0.00 0.00 60 1018.4
20260508011033 62 336 1.0 4.0 0.00 0.00 0.00 59 1018.5
20260508010531 62 207 1.0 3.0 0.00 0.00 0.00 59 1018.5
20260508010045 62 17 0.0 3.0 0.00 0.00 0.00 59 1018.6
20260508005531 62 217 0.0 4.0 0.00 0.00 0.00 60 1018.6
20260508005032 62 67 1.0 4.0 0.00 0.00 0.00 59 1018.6
20260508004532 63 43 0.0 3.0 0.00 0.00 0.00 60 1018.7
20260508004033 63 15 1.0 2.0 0.00 0.00 0.00 59 1018.8
20260508003628 64 292 4.0 10.0 0.00 0.00 0.00 59 1018.8
20260508003029 64 292 4.0 10.0 0.00 0.00 0.00 59 1018.7
20260508002528 64 304 3.0 10.0 0.00 0.00 0.00 60 1018.8
20260508002028 63 355 3.0 5.0 0.00 0.00 0.00 60 1018.8
20260508001542 64 346 2.0 5.0 0.00 0.00 0.00 60 1018.7
20260508001028 63 337 2.0 6.0 0.00 0.00 0.00 61 1018.8
20260508000530 64 328 3.0 10.0 0.00 0.00 0.00 60 1018.9
20260508000027 64 330 4.0 10.0 0.00 0.00 0.00 60 1018.8
20260507235529 65 294 4.0 9.0 0.00 0.00 0.00 59 1018.8
20260507235027 65 299 4.0 8.0 0.00 0.00 0.00 59 1018.8
20260507234525 63 311 0.0 6.0 0.00 0.00 0.00 63 1018.8
20260507234024 64 316 1.0 6.0 0.00 0.00 0.00 59 1018.9
20260507233624 64 246 0.0 3.0 0.00 0.00 0.00 58 1018.9
20260507233026 64 246 0.0 3.0 0.00 0.00 0.00 58 1018.8
20260507232523 64 342 0.0 3.0 0.00 0.00 0.00 58 1018.9
20260507232025 64 26 0.0 3.0 0.00 0.00 0.00 58 1019.0
20260507231524 64 202 1.0 3.0 0.00 0.00 0.00 59 1019.0
20260507231021 63 223 0.0 3.0 0.00 0.00 0.00 61 1019.1
20260507230521 63 342 0.0 5.0 0.00 0.00 0.00 60 1019.1
20260507230028 63 27 0.0 4.0 0.00 0.00 0.00 60 1019.1
20260507225520 63 331 0.0 3.0 0.00 0.00 0.00 59 1019.2
20260507225021 63 248 1.0 3.0 0.00 0.00 0.00 59 1019.2
20260507224528 63 334 0.0 3.0 0.00 0.00 0.00 57 1019.3
20260507224018 64 313 0.0 2.0 0.00 0.00 0.00 57 1019.3
20260507223619 63 297 3.0 8.0 0.00 0.00 0.00 61 1019.4
20260507223018 63 278 2.0 8.0 0.00 0.00 0.00 62 1019.3
20260507222517 63 316 4.0 9.0 0.00 0.00 0.00 59 1019.5
20260507222017 63 254 5.0 9.0 0.00 0.00 0.00 62 1019.5
20260507221523 63 332 2.0 6.0 0.00 0.00 0.00 63 1019.6
20260507221015 62 331 1.0 8.0 0.00 0.00 0.00 61 1019.7
20260507220513 62 321 3.0 8.0 0.00 0.00 0.00 61 1019.9
20260507220017 63 246 4.0 9.0 0.00 0.00 0.00 61 1019.8
20260507215515 64 343 2.0 9.0 0.00 0.00 0.00 60 1019.9
20260507215015 63 323 3.0 9.0 0.00 0.00 0.00 61 1019.9
20260507214511 63 294 4.0 9.0 0.00 0.00 0.00 61 1020.0
20260507214011 63 294 5.0 10.0 0.00 0.00 0.00 60 1020.0
20260507213510 61 329 0.0 4.0 0.00 0.00 0.00 63 1020.0
20260507213015 61 329 0.0 4.0 0.00 0.00 0.00 63 1020.1
20260507212513 61 27 1.0 4.0 0.00 0.00 0.00 60 1020.1
20260507212012 61 237 0.0 3.0 0.00 0.00 0.00 63 1020.2
20260507211527 60 134 1.0 3.0 0.00 0.00 0.00 64 1020.4
20260507211015 59 213 0.0 3.0 0.00 0.00 0.00 63 1020.5
20260507210511 59 355 0.0 5.0 0.00 0.00 0.00 64 1020.5
20260507210010 60 52 1.0 3.0 0.00 0.00 0.00 62 1020.6
20260507205510 61 85 1.0 3.0 0.00 0.00 0.00 61 1020.6
20260507205010 61 199 0.0 2.0 0.00 0.00 0.00 62 1020.7
20260507204508 60 233 0.0 2.0 0.00 0.00 0.00 62 1020.7
20260507204008 60 222 0.0 2.0 0.00 0.00 0.00 63 1020.8
20260507203607 60 279 3.0 9.0 0.00 0.00 0.00 66 1020.8
20260507203003 60 297 3.0 9.0 0.00 0.00 0.00 65 1020.9
20260507202502 60 298 5.0 9.0 0.00 0.00 0.00 66 1021.0
20260507202002 59 292 2.0 7.0 0.00 0.00 0.00 68 1021.0
20260507201504 60 301 1.0 8.0 0.00 0.00 0.00 64 1021.0
20260507201101 60 311 4.0 8.0 0.00 0.00 0.00 65 1021.0
20260507201002 60 317 4.0 8.0 0.00 0.00 0.00 65 1021.0
20260507200600 59 325 3.0 5.0 0.00 0.00 0.00 66 1021.0
20260507200058 58 338 1.0 5.0 0.00 0.00 0.00 68 1021.0
20260507195558 58 346 1.0 5.0 0.00 0.00 0.00 67 1021.0
20260507195059 58 333 2.0 5.0 0.00 0.00 0.00 67 1021.0
20260507194612 58 342 3.0 6.0 0.00 0.00 0.00 67 1021.0
20260507194057 59 307 2.0 6.0 0.00 0.00 0.00 67 1021.1
20260507193557 58 268 1.0 6.0 0.00 0.00 0.00 71 1021.1
20260507192556 58 269 4.0 6.0 0.00 0.00 0.00 68 1021.1
20260507192056 56 275 1.0 4.0 0.00 0.00 0.00 72 1021.2
20260507191602 56 283 0.0 4.0 0.00 0.00 0.00 71 1021.2
20260507191056 57 283 1.0 4.0 0.00 0.00 0.00 70 1021.3
20260507190554 56 283 1.0 5.0 0.00 0.00 0.00 70 1021.2
20260507190055 57 288 2.0 7.0 0.00 0.00 0.00 70 1021.3
20260507185554 57 292 3.0 7.0 0.00 0.00 0.00 69 1021.3
20260507185054 56 296 3.0 6.0 0.00 0.00 0.00 70 1021.4
20260507184554 57 317 3.0 8.0 0.00 0.00 0.00 70 1021.5
20260507184053 57 309 2.0 8.0 0.00 0.00 0.00 69 1021.5
20260507183558 58 278 2.0 6.0 0.00 0.00 0.00 67 1021.4
20260507182552 57 263 0.0 3.0 0.00 0.00 0.00 71 1021.5
20260507182052 57 263 1.0 3.0 0.00 0.00 0.00 70 1021.5
20260507181550 55 257 1.0 4.0 0.00 0.00 0.00 74 1021.5
20260507181049 54 257 1.0 4.0 0.00 0.00 0.00 75 1021.5
20260507180549 54 257 2.0 6.0 0.00 0.00 0.00 74 1021.6
20260507180053 54 258 2.0 6.0 0.00 0.00 0.00 76 1021.7
20260507175547 54 226 2.0 5.0 0.00 0.00 0.00 76 1021.7
20260507175046 54 225 3.0 5.0 0.00 0.00 0.00 76 1021.7
20260507174546 54 290 1.0 5.0 0.00 0.00 0.00 75 1021.8
20260507174045 54 288 2.0 7.0 0.00 0.00 0.00 75 1021.7
20260507173545 54 271 3.0 9.0 0.00 0.00 0.00 75 1021.7
20260507172548 55 292 5.0 9.0 0.00 0.00 0.00 75 1021.7
20260507172045 54 261 2.0 5.0 0.00 0.00 0.00 76 1021.8
20260507171544 54 282 1.0 5.0 0.00 0.00 0.00 75 1021.7
20260507171042 54 298 2.0 5.0 0.00 0.00 0.00 74 1021.7
20260507170541 53 296 3.0 8.0 0.00 0.00 0.00 75 1021.8
20260507170050 53 286 3.0 8.0 0.00 0.00 0.00 76 1021.7
20260507165542 53 263 1.0 6.0 0.00 0.00 0.00 76 1021.6
20260507165142 53 265 2.0 6.0 0.00 0.00 0.00 77 1021.8
20260507164539 52 254 1.0 7.0 0.00 0.00 0.00 78 1021.8
20260507164039 53 262 3.0 7.0 0.00 0.00 0.00 76 1021.8
20260507163539 53 281 2.0 7.0 0.00 0.00 0.00 75 1021.8
20260507162539 53 296 2.0 7.0 0.00 0.00 0.00 76 1021.7
20260507162038 53 284 3.0 7.0 0.00 0.00 0.00 76 1021.8
20260507161536 52 233 1.0 4.0 0.00 0.00 0.00 80 1021.7
20260507161034 51 233 1.0 4.0 0.00 0.00 0.00 79 1021.7
20260507160535 51 233 0.0 5.0 0.00 0.00 0.00 79 1021.7
20260507160035 51 233 2.0 5.0 0.00 0.00 0.00 80 1021.7
20260507155534 51 232 1.0 7.0 0.00 0.00 0.00 79 1021.7
20260507155035 51 232 2.0 7.0 0.00 0.00 0.00 79 1021.8
20260507154533 51 215 3.0 7.0 0.00 0.00 0.00 78 1021.8
20260507154032 51 175 3.0 7.0 0.00 0.00 0.00 80 1021.8
20260507153530 51 184 3.0 10.0 0.00 0.00 0.00 81 1021.9
20260507152530 51 154 4.0 9.0 0.00 0.00 0.00 82 1022.0
20260507152028 50 181 2.0 7.0 0.00 0.00 0.00 83 1022.0
20260507151528 50 182 2.0 7.0 0.00 0.00 0.00 83 1022.0
20260507151026 50 189 3.0 7.0 0.00 0.00 0.00 83 1022.0
20260507150525 50 191 3.0 5.0 0.00 0.00 0.00 83 1022.0
20260507150026 50 198 2.0 5.0 0.00 0.00 0.00 82 1022.1
20260507145525 51 198 1.0 7.0 0.00 0.00 0.00 83 1022.1
20260507145024 50 194 2.0 6.0 0.00 0.00 0.00 84 1022.1
20260507144524 50 194 2.0 6.0 0.00 0.00 0.00 84 1022.1
20260507144022 49 190 4.0 6.0 0.00 0.00 0.00 84 1022.1
20260507143521 49 190 1.0 4.0 0.00 0.00 0.00 85 1022.2
20260507142523 49 190 2.0 5.0 0.00 0.00 0.00 85 1022.2
20260507142020 49 190 1.0 6.0 0.00 0.00 0.00 86 1022.2
20260507141520 49 190 2.0 5.0 0.00 0.00 0.00 86 1022.2
20260507141020 49 190 0.0 4.0 0.00 0.00 0.00 86 1022.2
20260507140520 49 188 0.0 4.0 0.00 0.00 0.00 86 1022.1
20260507140019 49 188 1.0 4.0 0.00 0.00 0.00 86 1022.0
20260507135518 49 188 0.0 4.0 0.00 0.00 0.00 87 1021.8
20260507135017 49 188 0.0 4.0 0.00 0.00 0.00 87 1021.8
20260507134517 49 186 1.0 3.0 0.00 0.00 0.00 87 1021.8
20260507134015 49 186 1.0 3.0 0.00 0.00 0.00 87 1021.8
20260507133514 49 186 0.0 2.0 0.00 0.00 0.00 88 1021.8
20260507132513 49 186 0.0 3.0 0.00 0.00 0.00 89 1021.7
20260507132013 48 186 0.0 3.0 0.00 0.00 0.00 89 1021.7
20260507131512 48 186 0.0 1.0 0.00 0.00 0.00 89 1021.8
20260507131011 48 186 0.0 2.0 0.00 0.00 0.00 89 1021.7
20260507130512 48 186 0.0 1.0 0.00 0.00 0.00 89 1021.7
20260507130010 48 186 0.0 1.0 0.00 0.00 0.00 89 1021.8
20260507125511 48 186 0.0 2.0 0.00 0.00 0.00 89 1021.8
20260507125011 48 186 0.0 2.0 0.00 0.00 0.00 89 1021.8
20260507124509 48 186 0.0 3.0 0.00 0.00 0.00 89 1021.8
20260507124008 48 186 0.0 3.0 0.00 0.00 0.00 89 1021.9
20260507123508 48 186 0.0 1.0 0.00 0.00 0.00 89 1021.9
20260507122506 48 186 0.0 2.0 0.00 0.00 0.00 89 1022.0
20260507122006 48 186 0.0 2.0 0.00 0.00 0.00 89 1022.0
20260507121506 49 186 0.0 1.0 0.00 0.00 0.00 89 1022.1
20260507121006 49 186 0.0 1.0 0.00 0.00 0.00 89 1022.1
20260507120504 49 186 0.0 1.0 0.00 0.00 0.00 89 1022.2
20260507120005 49 186 0.0 1.0 0.00 0.00 0.00 88 1022.2
20260507115504 49 186 0.0 1.0 0.00 0.00 0.00 88 1022.3
20260507115002 49 186 0.0 2.0 0.00 0.00 0.00 88 1022.3
20260507114502 49 186 0.0 2.0 0.00 0.00 0.00 88 1022.4
20260507114004 49 186 0.0 0.0 0.00 0.00 0.00 88 1022.4